User: anonymous   Login
Location: Unspecified
(0.0000°N, 0.0000°E)
Time: 00:52:32
(UTC+00:00)
Language:

TJS-3 - Orbit

View from above orbital plane
View from above orbital plane
View from above satellite
View from above satellite

Ground track
Ground track

The orbit is defined by the following mean orbital elements,

1 43874U          26145.79915067 +.00000000 +00000-0 +00000-0 0 00001
2 43874   2.4894  80.7527 0001354  47.2355 191.2333  1.00268510    08
Epoch (UTC): 25 May 2026 19:10:46
Eccentricity: 0.0001354
inclination: 2.4894°
perigee height: 35782 km
apogee height: 35793 km
right ascension of ascending node: 80.7527°
argument of perigee: 47.2355°
revolutions per day: 1.00268510
mean anomaly at epoch: 191.2333°

The dashed part of the orbit path shows where the satellite is in the earth's shadow,  

DLR